Flag for France Weather past 2 weeks in Auxerre, France

Now
54 °F

Overcast.


Feels Like: 50 °F
Forecast: 39 / 51 °F
Wind: 12 mph from Southwest

Location: Troyes Airport

Current Time: Mar 1, 2015 at 4:22:51 PM

Latest Report: Mar 1, 2015 at 4:00 PM


Visibility: N/A

Pressure: 29.80 "Hg

Humidity: 77%

Dew point: 46 °F

Location of AuxerreLocation

Historic Weather in Auxerre — Graph

°F

Auxerre temperature yesterday

Maximum temperature yesterday: 48 °F (at 2:00 PM)
Minimum temperature yesterday: 25 °F (at 5:00 AM)
Average temperature yesterday: 38 °F

Past Weeks' High & Low Weather Summary

 TemperatureHumidityPressure
High54 °F (Feb 20, 2:00 PM)100% (Feb 15, 5:00 AM)30.69 "Hg (Feb 15, 5:00 AM)
Low23 °F (Feb 19, 3:00 AM)46% (Feb 28, 4:30 PM)29.47 "Hg (Feb 23, 7:00 AM)
Average41 °F84%30.01 "Hg
* Reported Feb 14 3:00 PM — Mar 1 3:00 PM, Auxerre, Weather by CustomWeather, © 2015

Note: Actual official high and low records may vary slightly from our data, if they occured in-between our weather recording intervals... More about our weather records

Advertising

Auxerre weather history for previous 24 hours

 ConditionsComfort  
Time TempWeatherWind HumidityBarometerVisibility
3:00 PM
Sun, Mar 1
54 °FOvercast.9 mph77%29.80 "HgN/A
2:30 PM52 °FCloudy.12 mph82%29.80 "HgN/A
2:00 PM54 °FOvercast.12 mph77%29.80 "HgN/A
1:30 PM52 °FPartly sunny.18 mph77%29.83 "HgN/A
1:00 PM54 °FCloudy.17 mph82%29.83 "HgN/A
12:30 PM54 °FMostly cloudy.16 mph88%29.83 "HgN/A
12:00 PM54 °FMostly cloudy.15 mph88%29.80 "HgN/A
11:30 AM52 °FMostly cloudy.12 mph94%29.83 "Hg6 mi
11:00 AM52 °FLight rain. Fog.8 mph94%29.83 "Hg1 mi
10:30 AM52 °FBroken clouds.9 mph88%29.83 "HgN/A
10:00 AM52 °FMore clouds than sun.14 mph88%29.83 "HgN/A
9:30 AM50 °FOvercast.13 mph94%29.80 "HgN/A
9:00 AM50 °FPartly sunny.12 mph88%29.80 "HgN/A
8:30 AM48 °FBroken clouds.12 mph94%29.80 "HgN/A
8:00 AM46 °FPartly sunny.13 mph100%29.80 "HgN/A
7:30 AM46 °FDrizzle. Partly sunny.16 mph93%29.80 "HgN/A
7:00 AM46 °FDrizzle. Fog.12 mph93%29.80 "Hg3 mi
6:30 AM46 °FMostly cloudy.14 mph93%29.77 "Hg4 mi
6:00 AM45 °FMostly cloudy.15 mph93%29.77 "HgN/A
5:30 AM45 °FPassing clouds.18 mph93%29.77 "HgN/A
5:00 AM45 °FMostly cloudy.20 mph93%29.77 "Hg4 mi
4:30 AM45 °FDrizzle. Overcast.21 mph87%29.77 "HgN/A
4:00 AM45 °FMostly cloudy.21 mph87%29.77 "HgN/A
3:30 AM45 °FLight rain. Mostly cloudy.20 mph87%29.77 "HgN/A
3:00 AM43 °FLight rain. Overcast.21 mph93%29.80 "HgN/A
2:30 AM43 °FRain. Mostly cloudy.18 mph87%29.80 "HgN/A
2:00 AM45 °FLight rain. Mostly cloudy.21 mph76%29.83 "HgN/A
1:30 AM45 °FPassing clouds.20 mph71%29.83 "HgN/A
1:00 AM45 °FMostly cloudy.18 mph66%29.86 "HgN/A
12:30 AM45 °FMostly cloudy.15 mph61%29.86 "HgN/A
12:00 AM45 °FPassing clouds.18 mph57%29.86 "HgN/A
11:30 PM
Sat, Feb 28
43 °FPassing clouds.17 mph61%29.86 "HgN/A
11:00 PM43 °FMostly cloudy.16 mph61%29.89 "HgN/A
10:30 PM45 °FMostly cloudy.13 mph53%29.92 "HgN/A
10:00 PM45 °FPassing clouds.15 mph53%29.92 "HgN/A
9:30 PM43 °FMostly cloudy.15 mph61%29.95 "HgN/A
9:00 PM43 °FPassing clouds.15 mph61%29.95 "HgN/A
8:30 PM45 °FClear.17 mph57%29.98 "HgN/A
8:00 PM45 °FClear.14 mph61%29.98 "HgN/A
7:30 PM45 °FClear.14 mph57%29.98 "HgN/A
7:00 PM45 °FClear.12 mph57%30.01 "HgN/A
6:30 PM45 °FClear.10 mph57%30.01 "HgN/A
6:00 PM46 °FClear.12 mph53%30.01 "HgN/A
5:30 PM46 °FClear.14 mph53%30.01 "HgN/A
5:00 PM48 °FClear.15 mph50%30.01 "HgN/A
4:30 PM48 °FClear.15 mph46%30.04 "HgN/A
4:00 PM48 °FClear.13 mph50%30.04 "HgN/A
Weather by CustomWeather, © 2015

See weather overviewHow to use our weather pages